Location: ČR
(50.0000°N, 15.0000°E)
Time: 13:47:13
(UTC+00:00)

Explorer 7 - Pass Details

Date: 23 October 2021
Orbit: 483 x 675 km, 50.3° (Epoch: 27 November)

Event Time Altitude Azimuth Distance (km) Brightness Sun altitude
Rises 00:03:35 0° 276° (W) 2,790 - -48.1°
Reaches altitude 10° 00:05:47 10° 277° (W) 1,922 - -47.9°
Maximum altitude 00:10:13 89° 14° (NNE) 624 - -47.6°
Drops below altitude 10° 00:14:55 10° 98° (E) 2,036 - -47.1°
Sets 00:17:19 0° 99° (E) 2,970 - -46.9°
